Weather History for K96D - February, 2014

Change the Weather History Date:

Sunday, February 9, 2014

  Actual Average (KGAF) Record (KGAF)
Temperature  
Mean Temperature -8 °F -  
Max Temperature -2 °F 21 °F 48 °F (1977)
Min Temperature -13 °F 0 °F -33 °F (1959)
Degree Days  
Heating Degree Days 72    
Moisture  
Dew Point -16 °F    
Average Humidity 68    
Maximum Humidity 84    
Minimum Humidity 60    
Precipitation  
Precipitation 0.00 in - - ()
Sea Level Pressure  
Sea Level Pressure 30.35 in    
Wind  
Wind Speed 7 mph (WNW)    
Max Wind Speed 15 mph    
Max Gust Speed 17 mph    
Visibility 10 miles    
Events      
Averages and records for this station are not official NWS values.
T = Trace of Precipitation, MM = Missing Value Source: NWS Daily Summary

Daily Weather History Graph

Daily Weather History Graph

Search for Another Location

Airport or City:

Trip Planner

Search our weather history database for the weather conditions in past years. The results will help you decide how hot, cold, wet, or windy it might be!

Date:

Astronomy

Feb. 09, 2014 Rise Set
Actual Time 7:49 AM CST 5:42 PM CST
Civil Twilight 7:16 AM CST 6:15 PM CST
Nautical Twilight 6:39 AM CST 6:53 PM CST
Astronomical Twilight 6:02 AM CST 7:29 PM CST
Moon 1:14 PM CST (2/9) 4:05 AM CST (2/9)
Length of Visible Light 10h 58m
Length of Day
9h 52m
Waxing Gibbous, 77% of the Moon is Illuminated
Feb 9
Waxing Gibbous
Feb 14
Full
Feb 22
Last Quarter
Mar 1
New
Mar 8
First Quarter

Hourly Weather History & Observations

Time (CST) Temp. Windchill Dew Point Humidity Pressure Visibility Wind Dir Wind Speed Gust Speed Precip Events Conditions
12:15 AM -11.2 °F -23.0 °F -16.6 °F 77% 30.31 in - WNW 4.6 mph - N/A   Mostly Cloudy
12:35 AM -13.0 °F -27.0 °F -16.6 °F 84% 30.31 in - West 5.8 mph - N/A   Unknown
12:55 AM -9.4 °F -24.3 °F -13.0 °F 84% 30.30 in - WNW 6.9 mph - N/A   Unknown
1:15 AM -9.4 °F -24.3 °F -14.8 °F 77% 30.30 in - West 6.9 mph - N/A   Partly Cloudy
1:35 AM -7.6 °F -23.4 °F -13.0 °F 77% 30.30 in 10.0 mi WNW 8.1 mph - N/A   Clear
1:55 AM -9.4 °F -22.7 °F -14.8 °F 77% 30.30 in 10.0 mi WNW 5.8 mph - N/A   Clear
2:15 AM -9.4 °F -22.7 °F -16.6 °F 71% 30.30 in 10.0 mi WNW 5.8 mph - N/A   Clear
2:35 AM -11.2 °F - -18.4 °F 70% 30.31 in - Calm Calm - N/A   Scattered Clouds
2:55 AM -9.4 °F -20.9 °F -16.6 °F 71% 30.30 in - West 4.6 mph - N/A   Mostly Cloudy
3:15 AM -9.4 °F -20.9 °F -14.8 °F 77% 30.31 in - West 4.6 mph - N/A   Mostly Cloudy
3:35 AM -9.4 °F -22.7 °F -16.6 °F 71% 30.30 in - West 5.8 mph - N/A   Mostly Cloudy
3:55 AM -9.4 °F -22.7 °F -16.6 °F 71% 30.31 in - West 5.8 mph - N/A   Overcast
4:15 AM -11.2 °F -24.8 °F -16.6 °F 77% 30.31 in - West 5.8 mph - N/A   Overcast
4:35 AM -11.2 °F -23.0 °F -16.6 °F 77% 30.31 in - West 4.6 mph - N/A   Mostly Cloudy
4:55 AM -11.2 °F -24.8 °F -18.4 °F 70% 30.31 in - West 5.8 mph - N/A   Mostly Cloudy
5:15 AM -11.2 °F -23.0 °F -18.4 °F 70% 30.31 in - West 4.6 mph - N/A   Mostly Cloudy
5:35 AM -11.2 °F - -16.6 °F 77% 30.31 in - Calm Calm - N/A   Mostly Cloudy
5:55 AM -11.2 °F -23.0 °F -18.4 °F 70% 30.31 in - WNW 4.6 mph - N/A   Mostly Cloudy
6:15 AM -11.2 °F -24.8 °F -18.4 °F 70% 30.31 in 10.0 mi WNW 5.8 mph - N/A   Overcast
6:35 AM -11.2 °F -24.8 °F -18.4 °F 70% 30.31 in 10.0 mi WNW 5.8 mph - N/A   Overcast
6:55 AM -11.2 °F -26.4 °F -18.4 °F 70% 30.32 in 10.0 mi WNW 6.9 mph - N/A   Overcast
7:15 AM -13.0 °F -27.0 °F -20.2 °F 70% 30.32 in 10.0 mi WNW 5.8 mph - N/A   Overcast
7:35 AM -13.0 °F -27.0 °F -20.2 °F 70% 30.33 in 10.0 mi NW 5.8 mph - N/A   Overcast
7:55 AM -13.0 °F -28.6 °F -18.4 °F 77% 30.33 in 10.0 mi WNW 6.9 mph - N/A   Mostly Cloudy
8:15 AM -13.0 °F -28.6 °F -18.4 °F 77% 30.33 in 10.0 mi WNW 6.9 mph - N/A   Mostly Cloudy
8:35 AM -13.0 °F -28.6 °F -20.2 °F 70% 30.34 in 10.0 mi WNW 6.9 mph - N/A   Scattered Clouds
8:55 AM -11.2 °F -26.4 °F -20.2 °F 64% 30.34 in 10.0 mi West 6.9 mph - N/A   Clear
9:15 AM -11.2 °F -24.8 °F -18.4 °F 70% 30.35 in 10.0 mi WNW 5.8 mph - N/A   Clear
9:35 AM -11.2 °F -24.8 °F -18.4 °F 70% 30.35 in 10.0 mi WNW 5.8 mph - N/A   Partly Cloudy
9:55 AM -9.4 °F -24.3 °F -18.4 °F 65% 30.35 in 10.0 mi WNW 6.9 mph - N/A   Scattered Clouds
10:15 AM -9.4 °F -22.7 °F -16.6 °F 71% 30.36 in 10.0 mi WNW 5.8 mph - N/A   Clear
10:35 AM -7.6 °F -23.4 °F -16.6 °F 65% 30.36 in 10.0 mi NW 8.1 mph - N/A   Clear
10:55 AM -7.6 °F -23.4 °F -16.6 °F 65% 30.37 in 10.0 mi NW 8.1 mph - N/A   Clear
11:15 AM -5.8 °F -18.4 °F -14.8 °F 65% 30.37 in 10.0 mi WNW 5.8 mph - N/A   Clear
11:35 AM -5.8 °F -21.2 °F -14.8 °F 65% 30.37 in 10.0 mi WNW 8.1 mph - N/A   Clear
11:55 AM -4.0 °F -17.8 °F -13.0 °F 65% 30.37 in 10.0 mi NW 6.9 mph - N/A   Clear
12:15 PM -4.0 °F -17.8 °F -13.0 °F 65% 30.37 in 10.0 mi NW 6.9 mph - N/A   Clear
12:35 PM -4.0 °F -19.0 °F -13.0 °F 65% 30.37 in 10.0 mi NW 8.1 mph - N/A   Clear
12:55 PM -4.0 °F -20.2 °F -14.8 °F 60% 30.37 in 10.0 mi West 9.2 mph - N/A   Partly Cloudy
1:15 PM -4.0 °F -20.2 °F -14.8 °F 60% 30.37 in 10.0 mi West 9.2 mph - N/A   Scattered Clouds
1:35 PM -4.0 °F -20.2 °F -14.8 °F 60% 30.36 in - West 9.2 mph - N/A   Partly Cloudy
1:55 PM -4.0 °F -22.1 °F -14.8 °F 60% 30.36 in 10.0 mi NW 11.5 mph - N/A   Clear
2:15 PM -2.2 °F -21.5 °F -13.0 °F 60% 30.35 in 10.0 mi NW 13.8 mph 17.3 mph N/A   Clear
2:35 PM -2.2 °F -21.5 °F -13.0 °F 60% 30.35 in 10.0 mi NW 13.8 mph - N/A   Clear
2:55 PM -4.0 °F -22.1 °F -13.0 °F 65% 30.35 in 10.0 mi WNW 11.5 mph - N/A   Mostly Cloudy
3:15 PM -2.2 °F -19.9 °F -13.0 °F 60% 30.35 in 10.0 mi NW 11.5 mph - N/A   Overcast
3:35 PM -2.2 °F -21.5 °F -13.0 °F 60% 30.35 in 10.0 mi NW 13.8 mph - N/A   Overcast
3:55 PM -2.2 °F -19.9 °F -13.0 °F 60% 30.35 in 10.0 mi NW 11.5 mph - N/A   Overcast
4:15 PM -2.2 °F -22.2 °F -13.0 °F 60% 30.36 in 10.0 mi NW 15.0 mph - N/A   Scattered Clouds
4:35 PM -2.2 °F -20.7 °F -13.0 °F 60% 30.36 in 10.0 mi NW 12.7 mph - N/A   Partly Cloudy
4:55 PM -2.2 °F -19.9 °F -13.0 °F 60% 30.37 in 10.0 mi NW 11.5 mph - N/A   Mostly Cloudy
5:15 PM -2.2 °F -19.9 °F -13.0 °F 60% 30.37 in 10.0 mi NW 11.5 mph - N/A   Scattered Clouds
5:35 PM -4.0 °F -19.0 °F -13.0 °F 65% 30.38 in 10.0 mi NNW 8.1 mph - N/A   Clear
5:55 PM -5.8 °F -16.7 °F -14.8 °F 65% 30.38 in 10.0 mi WNW 4.6 mph - N/A   Clear
6:15 PM -7.6 °F -20.6 °F -16.6 °F 65% 30.39 in 10.0 mi West 5.8 mph - N/A   Clear
6:35 PM -7.6 °F -20.6 °F -16.6 °F 65% 30.40 in 10.0 mi West 5.8 mph - N/A   Partly Cloudy
6:55 PM -7.6 °F -22.1 °F -16.6 °F 65% 30.40 in - WNW 6.9 mph - N/A   Scattered Clouds
7:15 PM -7.6 °F -18.8 °F -16.6 °F 65% 30.41 in 10.0 mi WNW 4.6 mph - N/A   Scattered Clouds
7:35 PM -7.6 °F -20.6 °F -16.6 °F 65% 30.41 in 10.0 mi WNW 5.8 mph - N/A   Mostly Cloudy
7:55 PM -7.6 °F -20.6 °F -16.6 °F 65% 30.41 in 10.0 mi NW 5.8 mph - N/A   Mostly Cloudy
8:15 PM -9.4 °F -22.7 °F -16.6 °F 71% 30.40 in 10.0 mi NW 5.8 mph - N/A   Mostly Cloudy
8:35 PM -7.6 °F -22.1 °F -16.6 °F 65% 30.40 in 10.0 mi WNW 6.9 mph - N/A   Scattered Clouds
8:55 PM -7.6 °F -22.1 °F -16.6 °F 65% 30.40 in 10.0 mi NW 6.9 mph - N/A   Partly Cloudy
9:15 PM -9.4 °F -25.6 °F -16.6 °F 71% 30.40 in 10.0 mi WNW 8.1 mph - N/A   Clear
9:35 PM -7.6 °F -23.4 °F -16.6 °F 65% 30.40 in 10.0 mi WNW 8.1 mph - N/A   Clear
9:55 PM -7.6 °F -22.1 °F -16.6 °F 65% 30.40 in 10.0 mi WNW 6.9 mph - N/A   Partly Cloudy
10:15 PM -7.6 °F -23.4 °F -16.6 °F 65% 30.41 in 10.0 mi WNW 8.1 mph - N/A   Clear
10:35 PM -7.6 °F -22.1 °F -16.6 °F 65% 30.41 in 10.0 mi WNW 6.9 mph - N/A   Partly Cloudy
10:55 PM -7.6 °F -24.6 °F -16.6 °F 65% 30.42 in 10.0 mi WNW 9.2 mph - N/A   Partly Cloudy
11:15 PM -7.6 °F -22.1 °F -16.6 °F 65% 30.42 in 10.0 mi WNW 6.9 mph - N/A   Clear
11:35 PM -7.6 °F -22.1 °F -16.6 °F 65% 30.42 in 10.0 mi WNW 6.9 mph - N/A   Clear
11:55 PM -9.4 °F -25.6 °F -16.6 °F 71% 30.42 in 10.0 mi WNW 8.1 mph - N/A   Clear